Location: *
(51.1248°S, 108.4023°W)
Time: 04:00:38
(UTC+00:00)

CZ-4B R/B - Pass Details

Date: 15 June 2021
Orbit: 386 x 450 km, 97.6° (Epoch: 31 July)

Event Time Altitude Azimuth Distance (km) Brightness Sun altitude
Rises 14:02:16 0° 166° (SSE) 2,513 5.1 -10.9°
Reaches altitude 10° 14:04:21 10° 165° (SSE) 1,624 4.1 -10.6°
Maximum altitude 14:07:51 84° 75° (ENE) 466 1.5 -10.1°
Drops below altitude 10° 14:11:14 10° 347° (NNW) 1,572 4.3 -9.6°
Sets 14:13:13 0° 346° (NNW) 2,423 5.3 -9.3°
